Weather reports worldwide

Advertisment
Kaisersbach-Cronhütte, Germany (10747): temperature & dewpoint: 24.10.2020 11:00:00 - 30.10.2020 11:00:00 (CET)Kaisersbach-Cronhütte, Germany (10747): temperature 5cm & temperature -5cm: 24.10.2020 11:00:00 - 30.10.2020 11:00:00 (CET)Kaisersbach-Cronhütte, Germany (10747): temperature -20cm & temperature -100cm: 24.10.2020 11:00:00 - 30.10.2020 11:00:00 (CET)Kaisersbach-Cronhütte, Germany (10747): wind speed & gusts: 24.10.2020 11:00:00 - 30.10.2020 11:00:00 (CET)Kaisersbach-Cronhütte, Germany (10747): wind direction: 24.10.2020 11:00:00 - 30.10.2020 11:00:00 (CET)Kaisersbach-Cronhütte, Germany (10747): reduced air pressure: 24.10.2020 11:00:00 - 30.10.2020 11:00:00 (CET)Kaisersbach-Cronhütte, Germany (10747): visibility: 24.10.2020 11:00:00 - 30.10.2020 11:00:00 (CET)Kaisersbach-Cronhütte, Germany (10747): sunshine duration: 24.10.2020 11:00:00 - 30.10.2020 11:00:00 (CET)Kaisersbach-Cronhütte, Germany (10747): precipitation: 24.10.2020 11:00:00 - 30.10.2020 11:00:00 (CET)
Date & Time tt [°C] td [°C] tt 5cm [°C] tt -5cm [°C] tt -20cm [°C] tt -100cm [°C] ff [km/h] ff [kn] fx [km/h] fx [kn] dd ppp [hPa] vv [km] sd [min] rr [mm]
30.10.2020 11:00:00 11,7 10,1 11,6 11,6 9,6 11,3 8 5 19 11 SW 1024,2 75 0 0,0
30.10.2020 10:00:00 11,1 10,2 11,1 10,4 9,5 11,3 5 3 16 9 SSW 1024,0 38 0 0,0
30.10.2020 09:00:00 10,7 9,6 10,2 9,7 9,5 11,3 7 4 15 8 SW 1023,9 57 0 0,0
30.10.2020 08:00:00 10,2 9,5 9,9 9,5 9,4 11,3 2 1 17 9 SSW 1023,6 3,7 0 0,9
30.10.2020 07:00:00 10,3 9,7 9,8 9,4 9,4 11,4 8 4 18 10 WSW 1022,9 2,1 0 0,6
30.10.2020 06:00:00 10,2 9,4 9,8 9,3 9,3 11,4 10 5 21 11 SW 1022,6 4,8 0 0,2
30.10.2020 05:00:00 10,1 9,3 9,6 9,3 9,3 11,4 6 4 20 11 SW 1022,5 46 0 0,4
30.10.2020 04:00:00 9,9 9,3 9,5 9,2 9,3 11,4 8 4 21 11 SSW 1022,1 12 0 0,3
30.10.2020 03:00:00 9,7 9,2 9,3 9,1 9,3 11,4 10 5 21 11 SW 1022,2 18 0 0,7
30.10.2020 02:00:00 9,3 8,7 9,0 9,0 9,3 11,4 9 5 18 10 SW 1022,6 3,0 0 1,2
30.10.2020 01:00:00 9,1 8,5 8,8 8,9 9,3 11,4 7 4 24 13 SW 1022,7 4,5 0 0,9
30.10.2020 00:00:00 8,9 8,3 8,6 8,8 9,3 11,4 9 5 19 11 SW 1023,0 10 0 0,9
29.10.2020 23:00:00 8,6 7,9 8,3 8,7 9,3 11,4 8 4 18 10 SW 1023,3 7 0 1,5
29.10.2020 22:00:00 8,6 7,9 8,2 8,7 9,4 11,4 6 4 16 9 SW 1023,4 11 0 0,7
29.10.2020 21:00:00 8,5 7,6 8,1 8,7 9,4 11,4 9 5 17 9 SW 1023,6 15 0 0,7
29.10.2020 20:00:00 8,8 7,6 8,1 8,8 9,5 11,4 6 4 13 7 SW 1023,2 19 0 0,2
29.10.2020 19:00:00 8,3 7,5 8,0 8,9 9,5 11,4 2 1 11 6 W 1023,0 24 0 0,2
29.10.2020 18:00:00 8,7 7,2 7,9 9,0 9,6 11,4 4 2 21 11 WSW 1022,6 22 0 0,5
29.10.2020 17:00:00 9,3 6,9 8,2 9,4 9,6 11,4 9 5 22 12 W 1022,0 37 0 0,2
29.10.2020 16:00:00 9,6 6,9 8,7 9,8 9,5 11,5 9 5 22 12 W 1021,3 53 0 0,0
29.10.2020 15:00:00 9,3 6,9 8,6 10,0 9,4 11,5 6 4 19 10 W 1021,2 45 0 0,1
29.10.2020 14:00:00 9,2 6,7 8,7 9,9 9,3 11,5 10 5 36 19 W 1021,2 50 0 0,1
29.10.2020 13:00:00 9,0 6,8 8,4 9,6 9,2 11,5 11 6 24 13 W 1021,1 48 0 0,0
29.10.2020 12:00:00 8,6 7,1 8,3 9,5 9,2 11,5 13 7 29 15 W 1021,0 35 0 1,1
29.10.2020 11:00:00 8,3 6,8 7,8 9,2 9,1 11,5 11 6 38 20 W 1020,5 9 0 0,2
29.10.2020 10:00:00 8,3 6,5 8,0 9,4 9,0 11,5 13 7 29 16 W 1019,7 75 5 0,0
29.10.2020 09:00:00 7,6 6,5 7,2 8,4 9,1 11,5 11 6 31 17 W 1019,1 38 0 1,5
29.10.2020 08:00:00 7,2 6,0 6,7 8,4 9,1 11,5 13 7 36 19 W 1018,5 8 0 2,4
29.10.2020 07:00:00 8,8 7,4 8,0 8,5 9,1 11,5 12 6 29 16 SW 1016,4 12 0 1,6
29.10.2020 06:00:00 9,0 7,8 8,3 8,5 9,1 11,5 10 5 24 13 W 1016,1 18 0 1,9
29.10.2020 05:00:00 10,0 7,1 8,6 8,5 9,1 11,5 12 6 27 15 WSW 1015,3 16 0 0,1
29.10.2020 04:00:00 9,9 7,5 8,8 8,5 9,2 11,5 10 6 26 14 SW 1015,2 75 0 0,2
29.10.2020 03:00:00 10,2 7,2 8,8 8,6 9,2 11,5 12 6 26 14 SW 1014,9 61 0 0,2
29.10.2020 02:00:00 10,3 6,7 9,1 8,5 9,2 11,6 10 6 22 12 SSW 1015,1 21 0 0,0
29.10.2020 01:00:00 10,5 6,7 8,9 8,4 9,2 11,6 13 7 28 15 SW 1015,4 72 0 0,1
29.10.2020 00:00:00 9,9 7,4 8,5 8,3 9,2 11,6 8 5 20 11 SW 1015,7 29 0 0,1
28.10.2020 23:00:00 7,5 7,0 7,3 8,2 9,3 11,6 2 1 7 4 N 1016,1 19 0 0,4
28.10.2020 22:00:00 6,9 6,5 6,4 8,0 9,5 11,6 0 0 3 2 N 1016,3 41 0 0,0
28.10.2020 21:00:00 6,9 6,4 6,0 8,1 9,6 11,6 2 1 4 2 SSW 1016,5 43 0 0,0
28.10.2020 20:00:00 7,1 6,4 6,3 8,3 9,8 11,6 2 1 5 3 ENE 1016,7 61 0 0,0
28.10.2020 19:00:00 7,0 6,1 6,3 8,3 10,0 11,6 0 0 6 4 N 1016,7 60 0 0,0
28.10.2020 18:00:00 8,1 6,3 6,3 9,0 10,1 11,6 3 1 18 10 ESE 1016,4 53 0 0,0
28.10.2020 17:00:00 10,8 6,5 8,8 10,2 10,2 11,6 10 5 25 14 SW 1015,5 71 18 0,0
28.10.2020 16:00:00 11,3 7,7 10,4 11,4 10,1 11,6 10 6 26 14 SW 1015,0 53 10 0,0
28.10.2020 15:00:00 11,3 8,1 10,5 12,2 9,9 11,6 15 8 30 16 SW 1014,6 65 2 0,0
28.10.2020 14:00:00 11,0 9,2 10,6 12,3 9,5 11,7 12 7 28 15 SSW 1014,5 16 0 0,2
28.10.2020 13:00:00 12,2 8,9 11,9 13,6 9,1 11,7 15 8 37 20 SW 1014,3 75 30 0,0
28.10.2020 12:00:00 11,8 9,6 11,9 11,6 8,7 11,7 10 5 21 12 SW 1014,5 58 6 0,0
28.10.2020 11:00:00 10,5 9,3 10,4 10,2 8,5 11,7 9 5 26 14 SW 1014,4 36 0 0,1
28.10.2020 10:00:00 9,8 8,9 9,5 9,0 8,3 11,7 10 5 19 10 SSW 1014,0 16 0 0,4
28.10.2020 09:00:00 8,8 8,0 8,6 8,2 8,2 11,7 4 2 10 6 S 1013,5 55 0 0,0
28.10.2020 08:00:00 8,0 7,3 7,7 7,6 8,1 11,7 0 0 9 5 N 1012,9 39 0 0,8
28.10.2020 07:00:00 7,5 6,7 7,2 7,4 8,1 11,7 2 1 7 4 SSE 1012,4 10 0 1,3
28.10.2020 06:00:00 8,1 6,0 7,3 7,3 8,0 11,7 5 3 10 5 S 1012,1 55 0 0,0
28.10.2020 05:00:00 7,8 5,6 6,9 7,1 8,0 11,7 5 3 13 7 SSW 1012,0 75 0 0,0
28.10.2020 04:00:00 7,1 5,4 6,4 6,9 8,0 11,7 4 2 9 5 S 1012,1 75 0 0,2
28.10.2020 03:00:00 6,4 4,7 6,2 6,6 8,0 11,7 2 1 14 8 E 1012,3 74 0 0,0
28.10.2020 02:00:00 5,9 4,4 5,6 6,3 8,0 11,7 0 0 9 5 N 1012,8 16 0 0,0
28.10.2020 01:00:00 6,6 3,5 5,2 5,7 8,2 11,8 4 2 9 5 SSW 1012,7 75 0 0,0
28.10.2020 00:00:00 4,8 3,2 3,8 5,2 8,4 11,8 2 1 7 4 ESE 1013,0 68 0 0,0
27.10.2020 23:00:00 3,8 2,5 1,4 5,2 8,7 11,8 2 1 10 6 SE 1013,3 62 0 0,0
27.10.2020 22:00:00 5,1 3,0 2,8 5,5 9,0 11,8 4 2 11 6 SSE 1013,2 75 0 0,0
27.10.2020 21:00:00 5,3 3,2 1,6 6,1 9,3 11,8 3 1 9 5 S 1013,3 66 0 0,0
27.10.2020 20:00:00 5,6 3,3 2,3 7,0 9,5 11,8 3 1 9 5 S 1013,1 62 0 0,0
27.10.2020 19:00:00 6,7 3,9 4,2 7,9 9,7 11,8 3 2 7 4 S 1012,9 27 0 0,0
27.10.2020 18:00:00 8,4 4,0 7,3 8,9 9,8 11,8 3 2 13 7 S 1012,5 62 0 0,0
27.10.2020 17:00:00 9,1 3,9 8,4 9,6 9,8 11,8 7 4 18 10 SSW 1012,1 69 0 0,0
27.10.2020 16:00:00 9,5 4,3 9,3 10,5 9,7 11,8 6 4 20 11 S 1012,1 75 0 0,0
27.10.2020 15:00:00 9,9 3,7 10,4 11,3 9,6 11,8 12 7 23 13 SSW 1012,1 65 10 0,0
27.10.2020 14:00:00 9,3 3,9 9,5 11,1 9,3 11,8 11 6 22 12 SW 1012,4 75 10 0,0
27.10.2020 13:00:00 9,3 3,9 9,7 11,6 9,0 11,8 10 5 25 14 WSW 1012,5 73 12 0,0
27.10.2020 12:00:00 9,6 4,5 10,7 12,4 8,5 11,9 10 5 26 14 SW 1012,4 75 44 0,0
27.10.2020 11:00:00 9,4 4,8 10,6 11,1 8,1 11,9 10 6 22 12 SSW 1012,3 60 60 0,0
27.10.2020 10:00:00 7,9 4,0 8,4 8,9 7,9 11,9 8 5 18 10 SW 1012,0 27 58 0,0
27.10.2020 09:00:00 5,9 4,0 6,2 6,3 7,9 11,9 4 2 8 5 SE 1012,4 33 31 0,0
27.10.2020 08:00:00 4,1 3,6 3,7 5,6 8,0 11,9 4 2 7 4 S 1012,3 23 0 0,0
27.10.2020 07:00:00 3,8 3,5 2,3 5,5 8,1 11,9 2 1 4 2 SSE 1012,0 12 0 0,0
27.10.2020 06:00:00 3,8 3,5 3,6 5,6 8,2 11,9 3 2 4 2 SE 1011,6 15 0 0,0
27.10.2020 05:00:00 3,5 3,2 1,7 5,5 8,4 11,9 0 0 4 2 N 1011,1 3,0 0 0,0
27.10.2020 04:00:00 3,8 3,5 2,5 5,8 8,6 11,9 2 1 4 2 SSE 1011,1 11 0 0,0
27.10.2020 03:00:00 4,0 3,7 3,2 6,1 8,7 11,9 2 1 6 3 NNE 1011,0 7 0 0,0
27.10.2020 02:00:00 4,4 4,0 3,8 6,4 8,9 11,9 2 1 7 4 ESE 1011,0 16 0 0,0
27.10.2020 01:00:00 4,6 4,2 3,8 6,6 9,0 11,9 2 1 4 2 ESE 1010,9 11 0 0,0
27.10.2020 00:00:00 5,0 4,2 4,3 7,0 9,2 11,9 2 1 7 4 E 1010,7 18 0 0,0
26.10.2020 23:00:00 5,7 4,6 5,3 7,3 9,3 11,9 2 1 10 5 SW 1010,6 26 0 0,0
26.10.2020 22:00:00 5,9 4,7 5,1 7,3 9,4 11,9 2 1 14 7 ENE 1010,6 42 0 0,0
26.10.2020 21:00:00 6,2 5,1 5,4 7,5 9,6 11,9 5 3 11 6 S 1010,0 53 0 0,0
26.10.2020 20:00:00 6,2 5,2 5,4 7,8 9,7 11,9 4 2 11 6 SW 1009,7 58 0 0,0
26.10.2020 19:00:00 6,5 5,5 5,9 8,1 9,9 11,9 4 2 11 6 S 1009,3 57 0 0,0
26.10.2020 18:00:00 6,9 6,0 6,3 8,5 10,0 11,9 5 3 16 9 SSW 1008,8 43 0 0,0
26.10.2020 17:00:00 7,3 6,3 6,9 9,0 10,0 11,9 8 4 19 10 SSW 1008,2 48 0 0,0
26.10.2020 16:00:00 7,5 6,5 7,3 9,3 10,1 11,9 7 4 22 12 SW 1007,9 54 0 0,1
26.10.2020 15:00:00 7,5 6,3 7,3 9,6 10,1 11,9 13 7 24 13 SW 1007,8 75 0 0,3
26.10.2020 14:00:00 7,7 6,6 7,4 9,7 10,1 11,9 8 5 19 10 SW 1007,4 34 0 0,5
26.10.2020 13:00:00 7,8 6,7 7,6 9,8 10,1 11,9 8 4 19 10 WSW 1007,4 21 0 0,7
26.10.2020 12:00:00 7,8 6,6 7,5 9,8 10,0 11,9 7 4 18 10 WSW 1006,9 24 0 0,6
26.10.2020 11:00:00 8,0 6,7 8,0 10,0 10,0 11,9 6 4 17 9 W 1006,7 37 0 0,5
26.10.2020 10:00:00 7,9 6,5 7,8 9,3 10,0 11,9 9 5 25 13 W 1006,5 22 0 0,4
26.10.2020 09:00:00 8,0 6,7 7,5 9,2 10,0 11,9 13 7 29 16 W 1006,1 37 0 1,3
26.10.2020 08:00:00 8,6 7,5 8,1 9,2 10,0 11,9 8 5 21 12 WNW 1005,5 12 0 1,5
26.10.2020 07:00:00 9,2 8,1 8,8 9,3 10,1 11,9 6 4 14 8 WNW 1003,9 18 0 0,0
26.10.2020 06:00:00 9,2 8,3 8,7 9,2 10,1 11,9 5 3 10 6 N 1003,5 47 0 0,0
26.10.2020 05:00:00 8,9 8,0 8,5 9,1 10,1 11,9 2 1 6 3 NE 1004,3 56 0 0,0
26.10.2020 04:00:00 9,0 8,0 8,1 9,0 10,2 11,9 3 2 9 5 N 1004,4 58 0 0,0
26.10.2020 03:00:00 9,7 8,0 8,5 9,0 10,3 11,9 5 3 12 6 NNW 1004,3 63 0 0,0
26.10.2020 02:00:00 8,8 7,7 7,8 8,9 10,4 11,9 4 2 8 5 W 1004,7 62 0 0,0
26.10.2020 01:00:00 8,8 8,0 7,3 9,2 10,5 11,9 3 2 9 5 NW 1004,9 51 0 0,0
26.10.2020 00:00:00 9,2 8,3 8,4 9,6 10,6 11,9 0 0 4 2 N 1005,1 47 0 0,0
25.10.2020 23:00:00 9,1 8,4 8,4 9,6 10,7 11,9 2 1 4 2 NNW 1006,0 54 0 0,0
25.10.2020 22:00:00 8,9 8,1 8,2 9,5 10,8 11,9 3 1 5 3 NE 1006,7 48 0 0,0
25.10.2020 21:00:00 8,9 8,2 7,7 9,5 10,9 11,9 2 1 4 2 NW 1007,5 51 0 0,0
25.10.2020 20:00:00 8,8 7,9 7,7 9,7 11,1 11,9 0 0 5 3 N 1007,6 62 0 0,0
25.10.2020 19:00:00 8,6 7,5 6,4 9,8 11,3 11,9 0 0 3 2 N 1007,5 68 0 0,0
25.10.2020 18:00:00 9,6 7,7 6,8 10,6 11,5 11,9 0 0 4 2 N 1007,1 66 0 0,0
25.10.2020 17:00:00 11,7 8,6 9,2 12,1 11,5 11,9 0 0 11 6 N 1006,6 71 0 0,0
25.10.2020 16:00:00 15,8 6,0 14,5 13,3 11,3 11,9 8 4 21 11 SW 1006,2 75 43 0,0
25.10.2020 15:00:00 17,2 5,9 17,8 14,9 10,9 11,9 7 4 23 13 SSW 1006,3 63 60 0,0
25.10.2020 14:00:00 17,3 5,3 18,8 15,6 10,4 11,9 11 6 26 14 SW 1006,8 75 60 0,0
25.10.2020 13:00:00 16,2 4,9 17,3 15,2 9,8 11,9 15 8 29 16 SW 1007,7 75 60 0,0
25.10.2020 12:00:00 15,6 6,7 16,8 14,1 9,2 11,9 12 6 24 13 SSW 1008,6 50 60 0,0
25.10.2020 11:00:00 13,4 7,7 12,8 11,8 8,7 11,9 6 3 14 8 SSE 1009,2 75 42 0,0
25.10.2020 10:00:00 10,3 8,8 11,0 9,1 8,5 11,9 2 1 11 6 ESE 1010,4 43 12 0,0
25.10.2020 09:00:00 8,1 7,2 8,0 7,0 8,5 11,9 3 2 10 5 SSE 1011,8 56 46 0,0
25.10.2020 08:00:00 5,0 4,9 3,1 5,1 8,7 11,9 2 1 6 3 E 1012,3 10 13 0,0
25.10.2020 07:00:00 3,7 3,7 1,6 4,8 8,9 11,9 3 2 9 5 WSW 1013,2 3,4 0 0,0
25.10.2020 06:00:00 2,9 2,7 0,9 5,1 9,2 11,9 0 0 4 2 N 1013,6 0,4 0 0,0
25.10.2020 05:00:00 3,6 3,4 1,7 5,4 9,4 11,9 1 0 4 2 SE 1013,9 34 0 0,0
25.10.2020 04:00:00 3,6 3,5 1,2 5,7 9,7 11,9 1 1 4 2 WNW 1014,4 1,5 0 0,0
25.10.2020 03:00:00 3,6 3,6 1,4 6,1 10,0 11,9 2 1 3 2 WNW 1014,9 9 0 0,0
25.10.2020 02:00:00 4,2 4,1 1,8 6,3 10,3 11,8 0 0 4 2 N 1015,5 2,7 0 0,0
25.10.2020 01:00:00 - - - - - - - - - - - - - - -
25.10.2020 00:00:00 4,1 4,0 1,8 7,0 11,0 11,8 2 1 3 2 NNW 1016,6 9 0 0,0
24.10.2020 23:00:00 4,8 4,8 2,5 7,5 11,3 11,8 2 1 3 2 NW 1017,3 0,7 0 0,0
24.10.2020 22:00:00 5,2 5,0 2,7 8,0 11,7 11,8 0 0 2 1 N 1017,6 0,3 0 0,0
24.10.2020 21:00:00 5,9 5,7 3,7 8,6 12,1 11,8 0 0 3 2 N 1017,9 0,1 0 0,0
24.10.2020 20:00:00 6,7 6,4 3,5 9,3 12,5 11,8 0 0 3 1 N 1017,8 0,6 0 0,0
24.10.2020 19:00:00 7,7 7,5 5,0 10,2 12,8 11,8 2 1 3 1 NW 1018,0 4,1 0 0,0
24.10.2020 18:00:00 9,0 8,2 6,0 11,4 13,1 11,8 1 0 5 3 N 1017,4 59 0 0,0
24.10.2020 17:00:00 11,3 8,9 8,4 13,0 13,2 11,8 3 1 13 7 W 1016,9 67 37 0,0
24.10.2020 16:00:00 14,0 8,1 14,2 14,4 13,2 11,8 3 2 21 11 WSW 1016,8 65 28 0,0
24.10.2020 15:00:00 14,5 7,4 15,4 16,1 12,9 11,7 13 7 24 13 WSW 1017,0 60 43 0,0
24.10.2020 14:00:00 15,9 8,4 18,2 17,2 12,5 11,7 10 6 24 13 SW 1016,9 56 53 0,0
24.10.2020 13:00:00 13,4 8,9 13,6 15,5 12,3 11,7 7 4 14 8 WSW 1018,1 75 18 0,0
24.10.2020 12:00:00 12,8 8,4 13,3 14,4 12,0 11,7 9 5 24 13 SW 1018,6 75 9 0,0
24.10.2020 11:00:00 13,3 10,2 15,7 14,6 11,8 11,7 8 4 22 12 WSW 1018,7 75 19 0,0

tt = temperature
td = dewpoint
tt 5cm = temperature 5cm
tt -5cm = temperature -5cm
tt -20cm = temperature -20cm
tt -100cm = temperature -100cm
ff = wind speed
fx = gusts
dd = wind direction
ppp = reduced air pressure
vv = visibility
sd = sunshine duration
rr = precipitation

Next stations